DECAYED

STARLINK-4306, 53067 (Decayed)

Orbit data source: Space-Track

STARLINK-4306, 53067 was a payload satellite owned by SpaceX/Seattle (US) in LEO that was launched on Mon, 11 Jul 2022 UTC via an FALCON 9 launch vehicle from the Air Force Western Test Range (AFWTR). Payload-class satellites include a variety of spacecraft equipped with specific instruments for various scientific and technological missions. These include communications satellites like Starlink; space stations such as the ISS; scientific satellites like the Hubble; Earth observation satellites from companies like Planet Labs, Umbra, and HawkEye 360; GPS; miniature CubeSats for education and research; and military/defense satellites.

Not visible in the next 10 days
Identifier
53067, 2022-077AA
Orbit
Decayed
Country
Flag of USUS
Related business
Manufacturer
SpaceX/Seattle
Mission
Decayed Commercial Communications
Bus & Motor
STARLINK, Unknown motor
Mass
297 kg wet, ~275 kg dry
Launch date (UTC)
2022-07-11 (4 years ago)
Launch vehicle
FALCON 9
Launch site
Air Force Western Test Range (AFWTR)
Object type
Payload
Rocket body
Debris
Shape & HBR
Box + 1 Pan, 10.1 m
Radar Cross Section
13.562 m², Large (>1 m²)

Expand to show TLE details & history
Last TLE update: 1 year ago

TLE from 1 year ago
0 STARLINK-4306
1 53067U 22077AA  25156.56591042  .06105537  26932-5  59112-3 0  9995
2 53067  97.6379 344.7655 0012656 248.0958 190.0160 16.38195156160328
Epoch: 2025-06-05T13:34Z
TLE epoch observation values (Epoch: 2025-06-05T13:34:54.660Z)
Latitude
75.94345°
Longitude
-145.37146°
Altitude
191.715 km
Speed
7.793 km/s
True Right ascension
20h 50m 21s
True Declination
75° 51' 19"
Sunlit
Object was in daylight at epoch
Visualization orbit readout
Latitude
Unknown
Longitude
Unknown
Altitude
Unknown
Speed
Unknown
Apparent Right ascension
Unknown
Apparent Declination
Unknown
Sunlit
N/A
Visualization observer readout
Local Sidereal Time
21:34:27
Azimuth
Unknown
Elevation
Unknown
Doppler factor
Unknown
Orbital elements
Apogee altitude
175.713 km
Perigee altitude
159.145 km
Semi-major axis
6,545.566 km
Eccentricity
0.00127
Inclination
97.6379°
RAAN
344.7655°
Arg. of periapsis
248.0958°
True anomaly
189.99082°
Mean anomaly
190.016°
Eccentric anomaly
190.0034°
Mean motion
4.09848 °/min
Orbital period
87.84 mins
BSTAR
0.00059112
Loading maneuver chart data...
Computing Atmospheric mass density...
Loading historical data...
Loading historical data...
Loading historical data...
Loading historical data...
Loading historical data...
Loading historical data...
Loading historical data...

Documentation

Showing up to 5 results
|